Flag for India Past Weather in Akbarpur (Kanpur Dehat), Uttar Pradesh, India — Yesterday and Last 2 Weeks

Now
99 °F

Haze.


Feels Like: 97 °F
Forecast: 77 / 105 °F
Wind: 6 mph from West

Location: Lucknow / Amausi

Current Time: Apr 26, 2017 at 11:58:23 am

Latest Report: Apr 26, 2017 at 11:00 am


Visibility: 2 mi

Pressure: 29.71 "Hg

Humidity: 24%

Dew Point: 55 °F

Location of Akbarpur (Kanpur Dehat)Location

Past Weather in Akbarpur (Kanpur Dehat) — Graph

°F

Akbarpur (Kanpur Dehat) Temperature Yesterday

Maximum temperature yesterday: 106 °F (at 12:30 pm)
Minimum temperature yesterday: 81 °F (at 6:00 am)
Average temperature yesterday: 95 °F

High & Low Weather Summary for the Past Weeks

 TemperatureHumidityPressure
High109 °F (Apr 15, 4:00 pm)89% (Apr 20, 5:00 am)29.80 "Hg (Apr 20, 5:00 am)
Low64 °F (Apr 12, 6:00 am)9% (Apr 25, 12:30 pm)29.47 "Hg (Apr 20, 4:00 pm)
Average91 °F44%29.63 "Hg
* Reported Apr 11 10:30 am — Apr 26 10:30 am, Akbarpur (Kanpur Dehat), Weather by CustomWeather, © 2017

Note: Actual official high and low records may vary slightly from our data, if they occured in-between our weather recording intervals... More about our weather records

Advertising

Akbarpur (Kanpur Dehat) Weather History for the Previous 24 Hours

Scroll right to see more
 ConditionsComfort  
Time TempWeatherWind HumidityBarometerVisibility
10:30 am
Wed, Apr 26
99 °FHaze.6 mph24%29.71 "Hg2 mi
10:00 am95 °FHaze.3 mph25%29.71 "Hg1 mi
9:30 am93 °FHaze.3 mph28%29.71 "Hg1 mi
9:00 am91 °FHaze.3 mph26%29.71 "Hg1 mi
8:30 am88 °FHaze.3 mph31%29.71 "Hg1 mi
8:00 am88 °FHaze.3 mph31%29.71 "Hg1 mi
7:30 am86 °FHaze.3 mph33%29.71 "Hg1 mi
7:00 am84 °FHaze.2 mph35%29.68 "Hg1 mi
6:30 am82 °FScattered clouds.3 mph35%29.68 "Hg1 mi
6:00 am81 °FPassing clouds.5 mph34%29.68 "Hg1 mi
5:30 am81 °FHaze.3 mph34%29.65 "Hg1 mi
5:00 am82 °FHaze.3 mph32%29.62 "Hg1 mi
4:00 am84 °FHaze.6 mph29%29.62 "Hg1 mi
3:00 am81 °FHaze.3 mph32%29.62 "Hg1 mi
12:00 am82 °FHaze.No wind28%29.62 "Hg1 mi
11:00 pm
Tue, Apr 25
84 °FHaze.2 mph25%29.62 "Hg1 mi
10:00 pm88 °FHaze.3 mph22%29.62 "Hg1 mi
9:00 pm88 °FHaze.3 mph21%29.62 "Hg1 mi
8:00 pm90 °FDuststorm.3 mph18%29.62 "Hg1 mi
7:30 pm91 °FDuststorm.3 mph17%29.59 "Hg1 mi
7:00 pm93 °FDuststorm.3 mph16%29.59 "Hg1 mi
6:30 pm97 °FDuststorm.3 mph13%29.59 "Hg1 mi
6:00 pm100 °FDuststorm.6 mph11%29.59 "Hg1 mi
5:30 pm102 °FDuststorm.6 mph11%29.56 "Hg1 mi
5:00 pm104 °FDuststorm.10 mph10%29.56 "Hg1 mi
4:30 pm106 °FLow level haze.16 mph10%29.56 "Hg1 mi
4:00 pm106 °FLow level haze.17 mph9%29.56 "Hg1 mi
3:00 pm106 °FLow level haze.23 mph13%29.59 "Hg1 mi
2:30 pm106 °FLow level haze.17 mph13%29.59 "Hg1 mi
2:00 pm106 °FLow level haze.17 mph13%29.62 "Hg2 mi
1:30 pm106 °FLow level haze.16 mph12%29.62 "Hg2 mi
1:00 pm106 °FDuststorm.12 mph11%29.65 "Hg2 mi
12:30 pm106 °FDuststorm.12 mph9%29.65 "Hg2 mi
12:00 pm104 °FDuststorm.12 mph10%29.65 "Hg2 mi
11:00 am102 °FDuststorm.7 mph13%29.68 "Hg2 mi
Weather by CustomWeather, © 2017

See weather overviewHow to use our weather pages